User: anonymous   Login
Location: Unspecified
(0.0000°N, 0.0000°E)
Time: 11:26:55
(UTC+00:00)
Language:

Explorer 11/Cluster Stage 4 - Orbit

View from above orbital plane
View from above orbital plane
View from above satellite
View from above satellite

Ground track
Ground track

The orbit data is extracted from the following two-line orbital elements,

1   107U 61013A   18172.82889233 +.00000312 +00000-0 +20021-4 0  9996
2   107 028.7918 324.0909 0548175 294.1024 060.3157 14.08606788863674
Epoch (UTC): 21 June 2018 19:53:36
Eccentricity: 0.0548175
inclination: 28.7918°
perigee height: 467 km
apogee height: 1261 km
right ascension of ascending node: 324.0909°
argument of perigee: 294.1024°
revolutions per day: 14.08606788
mean anomaly at epoch: 60.3157°
orbit number at epoch: 86367

The dashed part of the orbit path shows where the satellite is in the earth's shadow,  

DLR